STARLINK-31976 (59887 NORAD) Tracking and Keplerian Element Data

This shows tracking and keplerian element data for the satellite.

Feedback or suggestion? Click here.




ElementValue
Catalog59887
NameSTARLINK-31976
Epoch Orbit4008
Epoch Day34.82722598
Epoch Year2025
RAAN223.3312
Inclination43.0037
Eccentricity0.0002392
Argument of Perigee297.0548
Mean Anonmoly63.0064
Mean Motion15.40681424
Decay Rate-1.51E-06
L11 59887U 24100C 25034.82722598 -.00000151 00000+0 36631-5 0 9992
L22 59887 43.0037 223.3312 0002392 297.0548 63.0064 15.40681424 40089



Live tracking and technical data element details for STARLINK-31976 (NORAD 59887). STARLINK-31976 can be tracked NOW for your location showing map with azimuth and elevation plus other details from your city location.







IsCatalogInMostPopularTable: catalog: 59887, numindb: 65
Update: records affected: 1



GetName: 59887 STARLINK-31976

Hit Count: updated at: Sat, 17 May 2025 05:40:57 GMT